IAD2812 VABB-VOBL

Flight info

Callsign IAD2812
Flight time 1h 13m
Altitude 35000
Route VEVAK2A EPKOS DCT VIKAS DCT RIKBU RIKBU7E
Aircraft A320/M-SDE3FGHIRWY/LB1

Departure

Time 2026-04-28 13:19
Airport Chhatrapati Shivaji Maharaj International Airport (VABB)

Arrival

Time 2026-04-28 14:32
Airport Kempegowda International Airport Bengaluru (VOBL)
Time Latitude Longitude Altitude Speed Heading
2026-04-28 12:47 19.09157 72.85366 49 ft 0 kts
2026-04-28 13:02 19.09145 72.85366 49 ft 4 kts
2026-04-28 13:02 19.09118 72.85362 49 ft 4 kts 18°
2026-04-28 13:03 19.09096 72.85350 48 ft 4 kts 59°
2026-04-28 13:03 19.09091 72.85336 44 ft 1 kts 89°
2026-04-28 13:03 19.09091 72.85334 44 ft 0 kts 89°
2026-04-28 13:06 19.09091 72.85366 46 ft 9 kts 90°
2026-04-28 13:07 19.09091 72.85372 47 ft 0 kts 90°
2026-04-28 13:09 19.09091 72.85381 49 ft 3 kts 94°
2026-04-28 13:09 19.09068 72.85400 49 ft 5 kts 171°
2026-04-28 13:09 19.09035 72.85403 49 ft 4 kts 165°
2026-04-28 13:09 19.09024 72.85436 49 ft 7 kts 89°
2026-04-28 13:10 19.09025 72.85502 49 ft 9 kts 89°
2026-04-28 13:10 19.09026 72.85566 49 ft 9 kts 89°
2026-04-28 13:10 19.09027 72.85634 49 ft 11 kts 89°
2026-04-28 13:10 19.09028 72.85744 49 ft 18 kts 89°
2026-04-28 13:11 19.09030 72.85873 49 ft 17 kts 89°
2026-04-28 13:11 19.09032 72.85993 48 ft 16 kts 89°
2026-04-28 13:11 19.09035 72.86107 48 ft 15 kts 89°
2026-04-28 13:11 19.09036 72.86214 49 ft 14 kts 89°
2026-04-28 13:12 19.09037 72.86330 49 ft 20 kts 89°
2026-04-28 13:12 19.09038 72.86506 49 ft 28 kts 90°
2026-04-28 13:12 19.09042 72.86720 50 ft 30 kts 89°
2026-04-28 13:12 19.09045 72.86941 50 ft 31 kts 89°
2026-04-28 13:13 19.09048 72.87169 50 ft 31 kts 89°
2026-04-28 13:13 19.09050 72.87351 49 ft 20 kts 90°
2026-04-28 13:13 19.09060 72.87475 49 ft 13 kts 91°
2026-04-28 13:13 19.09056 72.87568 49 ft 13 kts 92°
2026-04-28 13:14 19.09056 72.87661 49 ft 12 kts 90°
2026-04-28 13:14 19.09056 72.87749 49 ft 12 kts 88°
2026-04-28 13:14 19.09058 72.87832 49 ft 11 kts 88°
2026-04-28 13:14 19.09060 72.87910 49 ft 10 kts 89°
2026-04-28 13:15 19.09060 72.87981 49 ft 9 kts 90°
2026-04-28 13:15 19.09057 72.88037 49 ft 6 kts 109°
2026-04-28 13:15 19.09026 72.88053 48 ft 5 kts 178°
2026-04-28 13:15 19.09020 72.88053 48 ft 0 kts 179°
2026-04-28 13:17 19.09019 72.88053 48 ft 0 kts 179°
2026-04-28 13:17 19.08998 72.88053 48 ft 8 kts 179°
2026-04-28 13:17 19.08925 72.88051 46 ft 11 kts 191°
2026-04-28 13:17 19.08887 72.88000 47 ft 10 kts 268°
2026-04-28 13:18 19.08886 72.87922 48 ft 14 kts 269°
2026-04-28 13:18 19.08882 72.87599 48 ft 79 kts 268°
2026-04-28 13:18 19.08870 72.86813 52 ft 133 kts 269°
2026-04-28 13:18 19.08850 72.85673 150 ft 169 kts 269°
2026-04-28 13:19 19.08806 72.84422 734 ft 173 kts 265°
2026-04-28 13:19 19.08694 72.83131 1351 ft 176 kts 269°
2026-04-28 13:19 19.08674 72.81826 1967 ft 183 kts 271°
2026-04-28 13:19 19.08686 72.80404 2204 ft 204 kts 272°
2026-04-28 13:20 19.08697 72.78810 2392 ft 229 kts 272°
2026-04-28 13:20 19.08697 72.77037 2692 ft 253 kts 271°
2026-04-28 13:20 19.08665 72.75124 3237 ft 266 kts 266°
2026-04-28 13:20 19.08007 72.73290 3944 ft 276 kts 233°
2026-04-28 13:21 19.06439 72.72099 4678 ft 287 kts 200°
2026-04-28 13:21 19.04444 72.71976 5405 ft 294 kts 167°
2026-04-28 13:21 19.02670 72.72975 6168 ft 297 kts 136°
2026-04-28 13:21 19.01204 72.74511 6926 ft 297 kts 141°
2026-04-28 13:22 18.99351 72.75433 7613 ft 299 kts 169°
2026-04-28 13:22 18.97287 72.75584 8315 ft 297 kts 184°
2026-04-28 13:22 18.95231 72.75402 8654 ft 295 kts 188°
2026-04-28 13:22 18.93197 72.75126 9416 ft 294 kts 188°
2026-04-28 13:23 18.91155 72.74873 10060 ft 302 kts 187°
2026-04-28 13:23 18.88981 72.74667 10246 ft 325 kts 185°
2026-04-28 13:23 18.86676 72.74519 10664 ft 337 kts 184°
2026-04-28 13:23 18.84316 72.74420 11282 ft 342 kts 183°
2026-04-28 13:24 18.81922 72.74351 11937 ft 346 kts 182°
2026-04-28 13:24 18.79502 72.74302 12583 ft 350 kts 181°
2026-04-28 13:24 18.77094 72.74569 13215 ft 356 kts 169°
2026-04-28 13:24 18.74708 72.75325 13835 ft 361 kts 162°
2026-04-28 13:25 18.72316 72.76169 14377 ft 365 kts 163°
2026-04-28 13:25 18.69890 72.77015 14911 ft 369 kts 162°
2026-04-28 13:25 18.67437 72.77866 15445 ft 374 kts 162°
2026-04-28 13:25 18.64952 72.78726 15969 ft 378 kts 162°
2026-04-28 13:26 18.62441 72.79595 16486 ft 382 kts 162°
2026-04-28 13:26 18.59898 72.80473 17007 ft 386 kts 161°
2026-04-28 13:26 18.57335 72.81362 17530 ft 390 kts 161°
2026-04-28 13:26 18.54742 72.82261 18058 ft 394 kts 161°
2026-04-28 13:27 18.52133 72.83169 18517 ft 397 kts 161°
2026-04-28 13:27 18.49506 72.84086 18983 ft 400 kts 161°
2026-04-28 13:27 18.46853 72.85009 19458 ft 402 kts 162°
2026-04-28 13:27 18.44221 72.85922 19935 ft 405 kts 162°
2026-04-28 13:28 18.41541 72.86848 20428 ft 407 kts 162°
2026-04-28 13:28 18.38839 72.87782 20918 ft 410 kts 162°
2026-04-28 13:28 18.36118 72.88723 21420 ft 412 kts 163°
2026-04-28 13:28 18.33389 72.89665 21912 ft 415 kts 163°
2026-04-28 13:29 18.30641 72.90615 22395 ft 417 kts 163°
2026-04-28 13:29 18.27867 72.91574 22845 ft 421 kts 163°
2026-04-28 13:29 18.25078 72.92540 23315 ft 423 kts 163°
2026-04-28 13:29 18.22271 72.93511 23692 ft 426 kts 164°
2026-04-28 13:30 18.19441 72.94491 24050 ft 429 kts 164°
2026-04-28 13:30 18.16599 72.95475 24413 ft 432 kts 164°
2026-04-28 13:30 18.13740 72.96464 24761 ft 434 kts 165°
2026-04-28 13:30 18.10876 72.97516 25102 ft 438 kts 160°
2026-04-28 13:31 18.05731 73.00996 25746 ft 452 kts 140°
2026-04-28 13:31 18.03408 73.03232 26055 ft 455 kts 140°
2026-04-28 13:31 18.01066 73.05479 26357 ft 458 kts 140°
2026-04-28 13:32 17.98702 73.07739 26649 ft 461 kts 141°
2026-04-28 13:32 17.96325 73.10007 26924 ft 463 kts 141°
2026-04-28 13:32 17.93930 73.12286 27219 ft 466 kts 141°
2026-04-28 13:32 17.91521 73.14578 27518 ft 468 kts 141°
2026-04-28 13:33 17.89099 73.16885 27791 ft 472 kts 141°
2026-04-28 13:33 17.86665 73.19207 28054 ft 475 kts 141°
2026-04-28 13:33 17.84213 73.21546 28323 ft 477 kts 142°
2026-04-28 13:33 17.81751 73.23892 28569 ft 480 kts 142°
2026-04-28 13:34 17.79308 73.26219 28838 ft 482 kts 142°
2026-04-28 13:34 17.76818 73.28592 29094 ft 485 kts 142°
2026-04-28 13:34 17.74313 73.30976 29345 ft 487 kts 142°
2026-04-28 13:34 17.71798 73.33365 29581 ft 490 kts 142°
2026-04-28 13:35 17.69267 73.35771 29837 ft 492 kts 142°
2026-04-28 13:35 17.66726 73.38186 30041 ft 494 kts 142°
2026-04-28 13:35 17.64176 73.40613 30242 ft 496 kts 142°
2026-04-28 13:35 17.61615 73.43048 30445 ft 498 kts 142°
2026-04-28 13:36 17.59040 73.45491 30649 ft 500 kts 142°
2026-04-28 13:36 17.56492 73.47905 30837 ft 501 kts 142°
2026-04-28 13:36 17.53899 73.50360 31019 ft 503 kts 142°
2026-04-28 13:36 17.51303 73.52821 31232 ft 504 kts 142°
2026-04-28 13:37 17.48703 73.55287 31500 ft 503 kts 142°
2026-04-28 13:37 17.46110 73.57745 31770 ft 503 kts 142°
2026-04-28 13:37 17.43518 73.60202 32063 ft 503 kts 142°
2026-04-28 13:37 17.40925 73.62660 32340 ft 502 kts 142°
2026-04-28 13:38 17.38332 73.65112 32613 ft 502 kts 142°
2026-04-28 13:38 17.35738 73.67562 32865 ft 503 kts 142°
2026-04-28 13:38 17.33141 73.70019 33168 ft 502 kts 142°
2026-04-28 13:38 17.30551 73.72471 33440 ft 502 kts 142°
2026-04-28 13:39 17.27964 73.74919 33741 ft 501 kts 142°
2026-04-28 13:39 17.25374 73.77368 34001 ft 501 kts 142°
2026-04-28 13:39 17.22825 73.79772 34265 ft 500 kts 142°
2026-04-28 13:39 17.20247 73.82203 34519 ft 499 kts 142°
2026-04-28 13:40 17.17670 73.84631 34760 ft 499 kts 142°
2026-04-28 13:40 17.15097 73.87058 34835 ft 495 kts 142°
2026-04-28 13:40 17.10023 73.91847 34847 ft 489 kts 142°
2026-04-28 13:41 17.04968 73.96601 34848 ft 488 kts 142°
2026-04-28 13:41 16.99917 74.01343 34849 ft 488 kts 142°
2026-04-28 13:42 16.94904 74.06051 34850 ft 488 kts 142°
2026-04-28 13:42 16.89860 74.10800 34860 ft 488 kts 141°
2026-04-28 13:43 16.85405 74.16203 34872 ft 493 kts 131°
2026-04-28 13:43 16.81157 74.21821 34880 ft 493 kts 132°
2026-04-28 13:44 16.76901 74.27434 34891 ft 493 kts 132°
2026-04-28 13:44 16.72648 74.33039 34894 ft 493 kts 132°
2026-04-28 13:45 16.68428 74.38609 34892 ft 492 kts 132°
2026-04-28 13:45 16.64185 74.44205 34883 ft 492 kts 132°
2026-04-28 13:46 16.59928 74.49801 34870 ft 492 kts 132°
2026-04-28 13:46 16.55677 74.55388 34853 ft 492 kts 132°
2026-04-28 13:47 16.52151 74.60019 34837 ft 491 kts 132°
2026-04-28 13:47 16.47215 74.66507 34826 ft 491 kts 132°
2026-04-28 13:48 16.42977 74.72072 34822 ft 490 kts 132°
2026-04-28 13:48 16.39417 74.76736 34823 ft 490 kts 132°
2026-04-28 13:49 16.34486 74.83188 34819 ft 490 kts 132°
2026-04-28 13:49 16.30965 74.87794 34816 ft 489 kts 132°
2026-04-28 13:50 16.26729 74.93337 34816 ft 489 kts 132°
2026-04-28 13:50 16.22490 74.98876 34815 ft 489 kts 132°
2026-04-28 13:51 16.17561 75.05308 34813 ft 489 kts 132°
2026-04-28 13:51 16.14009 75.09942 34811 ft 489 kts 132°
2026-04-28 13:52 16.09796 75.15438 34810 ft 489 kts 132°
2026-04-28 13:52 16.05550 75.20969 34809 ft 489 kts 132°
2026-04-28 13:53 16.01298 75.26494 34810 ft 489 kts 132°
2026-04-28 13:53 15.97047 75.32021 34812 ft 489 kts 132°
2026-04-28 13:54 15.92802 75.37551 34813 ft 489 kts 132°
2026-04-28 13:54 15.88553 75.43079 34814 ft 489 kts 132°
2026-04-28 13:55 15.84306 75.48587 34813 ft 489 kts 132°
2026-04-28 13:55 15.80081 75.54061 34815 ft 489 kts 132°
2026-04-28 13:56 15.75833 75.59564 34815 ft 488 kts 132°
2026-04-28 13:56 15.71595 75.65061 34815 ft 488 kts 132°
2026-04-28 13:57 15.67350 75.70550 34819 ft 487 kts 132°
2026-04-28 13:57 15.63108 75.76023 34817 ft 487 kts 132°
2026-04-28 13:58 15.58873 75.81500 34813 ft 486 kts 131°
2026-04-28 13:58 15.54640 75.86966 34811 ft 486 kts 131°
2026-04-28 13:59 15.50438 75.92389 34810 ft 485 kts 131°
2026-04-28 13:59 15.46213 75.97842 34810 ft 485 kts 131°
2026-04-28 14:00 15.41994 76.03286 34810 ft 484 kts 131°
2026-04-28 14:00 15.37774 76.08716 34806 ft 483 kts 132°
2026-04-28 14:01 15.33559 76.14132 34806 ft 483 kts 131°
2026-04-28 14:01 15.29379 76.19505 34809 ft 482 kts 131°
2026-04-28 14:02 15.25198 76.24888 36491 ft 470 kts 129°
2026-04-28 14:02 15.23187 76.27476 36409 ft 454 kts 129°
2026-04-28 14:02 15.21227 76.29996 36155 ft 446 kts 129°
2026-04-28 14:03 15.19284 76.32486 35906 ft 443 kts 129°
2026-04-28 14:03 15.17274 76.34893 35656 ft 442 kts 136°
2026-04-28 14:03 15.14947 76.36962 35405 ft 441 kts 145°
2026-04-28 14:03 15.12378 76.38694 35158 ft 441 kts 148°
2026-04-28 14:04 15.09782 76.40390 34971 ft 441 kts 148°
2026-04-28 14:04 15.07226 76.42065 35010 ft 442 kts 148°
2026-04-28 14:04 15.02027 76.45482 35007 ft 443 kts 148°
2026-04-28 14:05 14.96823 76.48890 35007 ft 443 kts 148°
2026-04-28 14:05 14.91621 76.52290 35007 ft 443 kts 148°
2026-04-28 14:06 14.86415 76.55697 35008 ft 443 kts 148°
2026-04-28 14:06 14.81212 76.59103 35007 ft 443 kts 148°
2026-04-28 14:07 14.76038 76.62480 34406 ft 446 kts 148°
2026-04-28 14:07 14.73422 76.64189 33803 ft 443 kts 148°
2026-04-28 14:07 14.70825 76.65884 33247 ft 439 kts 148°
2026-04-28 14:08 14.68247 76.67564 32688 ft 436 kts 148°
2026-04-28 14:08 14.65694 76.69228 32137 ft 433 kts 148°
2026-04-28 14:08 14.63153 76.70887 31592 ft 430 kts 148°
2026-04-28 14:08 14.60630 76.72533 31049 ft 427 kts 148°
2026-04-28 14:09 14.58129 76.74164 30513 ft 424 kts 148°
2026-04-28 14:09 14.55643 76.75787 29982 ft 421 kts 148°
2026-04-28 14:09 14.53209 76.77372 29470 ft 418 kts 148°
2026-04-28 14:09 14.50757 76.78968 28959 ft 415 kts 148°
2026-04-28 14:10 14.48328 76.80550 28456 ft 411 kts 148°
2026-04-28 14:10 14.45917 76.82119 27962 ft 408 kts 148°
2026-04-28 14:10 14.43529 76.83671 27489 ft 404 kts 148°
2026-04-28 14:10 14.41162 76.85210 27022 ft 401 kts 148°
2026-04-28 14:11 14.38811 76.86739 26564 ft 397 kts 148°
2026-04-28 14:11 14.36491 76.88250 26118 ft 393 kts 148°
2026-04-28 14:11 14.34185 76.89754 25658 ft 390 kts 148°
2026-04-28 14:11 14.31897 76.91247 25198 ft 387 kts 148°
2026-04-28 14:12 14.29657 76.92705 24740 ft 384 kts 148°
2026-04-28 14:12 14.27401 76.94169 23243 ft 382 kts 149°
2026-04-28 14:12 14.25188 76.95603 23099 ft 370 kts 149°
2026-04-28 14:12 14.23052 76.96987 23012 ft 356 kts 149°
2026-04-28 14:13 14.20974 76.98336 22759 ft 353 kts 148°
2026-04-28 14:13 14.18906 76.99684 22322 ft 351 kts 148°
2026-04-28 14:13 14.16841 77.01033 21879 ft 350 kts 148°
2026-04-28 14:13 14.14783 77.02376 21435 ft 350 kts 148°
2026-04-28 14:14 14.12726 77.03718 20993 ft 350 kts 148°
2026-04-28 14:14 14.10672 77.05055 20554 ft 349 kts 148°
2026-04-28 14:14 14.08617 77.06391 20107 ft 350 kts 148°
2026-04-28 14:14 14.06583 77.07715 19673 ft 350 kts 148°
2026-04-28 14:15 14.04524 77.09056 19234 ft 351 kts 147°
2026-04-28 14:15 14.02459 77.10400 18792 ft 352 kts 147°
2026-04-28 14:15 14.00388 77.11748 18352 ft 352 kts 147°
2026-04-28 14:15 13.98313 77.13097 17866 ft 353 kts 147°
2026-04-28 14:16 13.96241 77.14444 17424 ft 352 kts 147°
2026-04-28 14:16 13.94170 77.15790 16987 ft 351 kts 147°
2026-04-28 14:16 13.92107 77.17130 16560 ft 350 kts 147°
2026-04-28 14:16 13.90051 77.18465 16124 ft 349 kts 147°
2026-04-28 14:17 13.88002 77.19797 15704 ft 348 kts 147°
2026-04-28 14:17 13.85954 77.21127 15278 ft 347 kts 147°
2026-04-28 14:17 13.83940 77.22435 14865 ft 346 kts 147°
2026-04-28 14:17 13.81918 77.23744 14426 ft 338 kts 147°
2026-04-28 14:18 13.79963 77.25009 14029 ft 325 kts 147°
2026-04-28 14:18 13.78069 77.26234 13689 ft 322 kts 147°
2026-04-28 14:18 13.76162 77.27469 13365 ft 324 kts 147°
2026-04-28 14:18 13.74262 77.28700 13050 ft 322 kts 147°
2026-04-28 14:19 13.72377 77.29926 12736 ft 320 kts 147°
2026-04-28 14:19 13.70502 77.31147 12428 ft 318 kts 147°
2026-04-28 14:19 13.68633 77.32362 12122 ft 317 kts 147°
2026-04-28 14:19 13.66776 77.33565 11808 ft 315 kts 147°
2026-04-28 14:20 13.64934 77.34757 11496 ft 311 kts 146°
2026-04-28 14:20 13.63117 77.35934 11197 ft 307 kts 146°
2026-04-28 14:20 13.61344 77.37081 10906 ft 302 kts 146°
2026-04-28 14:20 13.59609 77.38202 10675 ft 286 kts 146°
2026-04-28 14:21 13.57906 77.39161 10450 ft 277 kts 156°
2026-04-28 14:21 13.56126 77.39868 10224 ft 272 kts 157°
2026-04-28 14:21 13.54372 77.40561 9999 ft 268 kts 157°
2026-04-28 14:21 13.52670 77.41233 9836 ft 261 kts 157°
2026-04-28 14:22 13.51008 77.41886 9711 ft 251 kts 156°
2026-04-28 14:22 13.49387 77.42522 9586 ft 248 kts 156°
2026-04-28 14:22 13.47780 77.43157 9462 ft 247 kts 156°
2026-04-28 14:22 13.46175 77.43791 9336 ft 247 kts 156°
2026-04-28 14:23 13.44573 77.44425 9220 ft 247 kts 156°
2026-04-28 14:23 13.42968 77.45060 9094 ft 246 kts 156°
2026-04-28 14:23 13.41375 77.45516 9008 ft 237 kts 171°
2026-04-28 14:23 13.39756 77.45588 8841 ft 229 kts 176°
2026-04-28 14:24 13.38187 77.45636 8664 ft 223 kts 175°
2026-04-28 14:24 13.36640 77.45687 8485 ft 222 kts 175°
2026-04-28 14:24 13.35099 77.45738 8347 ft 221 kts 175°
2026-04-28 14:24 13.33564 77.45789 8255 ft 221 kts 175°
2026-04-28 14:25 13.32039 77.45838 8158 ft 214 kts 175°
2026-04-28 14:25 13.30588 77.45746 8049 ft 206 kts 189°
2026-04-28 14:25 13.29203 77.45467 7916 ft 198 kts 188°
2026-04-28 14:25 13.27864 77.45201 7727 ft 194 kts 188°
2026-04-28 14:26 13.26547 77.44941 7554 ft 193 kts 188°
2026-04-28 14:26 13.25228 77.44688 7381 ft 193 kts 186°
2026-04-28 14:26 13.23900 77.44722 7159 ft 188 kts 164°
2026-04-28 14:26 13.22717 77.45198 7073 ft 184 kts 144°
2026-04-28 14:27 13.21756 77.46039 6968 ft 181 kts 126°
2026-04-28 14:27 13.21125 77.47132 6819 ft 177 kts 107°
2026-04-28 14:27 13.20879 77.48353 6641 ft 173 kts 88°
2026-04-28 14:27 13.20869 77.49586 6441 ft 173 kts 88°
2026-04-28 14:28 13.20859 77.50820 6220 ft 172 kts 88°
2026-04-28 14:28 13.20849 77.52048 6005 ft 172 kts 88°
2026-04-28 14:28 13.20840 77.53273 5787 ft 172 kts 88°
2026-04-28 14:28 13.20830 77.54489 5565 ft 168 kts 88°
2026-04-28 14:29 13.20821 77.55674 5352 ft 162 kts 88°
2026-04-28 14:29 13.20811 77.56798 5150 ft 153 kts 88°
2026-04-28 14:29 13.20803 77.57860 4985 ft 146 kts 87°
2026-04-28 14:29 13.20795 77.58894 4795 ft 145 kts 87°
2026-04-28 14:30 13.20787 77.59913 4612 ft 144 kts 88°
2026-04-28 14:30 13.20779 77.60938 4426 ft 143 kts 88°
2026-04-28 14:30 13.20771 77.61958 4242 ft 143 kts 88°
2026-04-28 14:30 13.20762 77.62972 4059 ft 142 kts 89°
2026-04-28 14:31 13.20754 77.63991 3876 ft 143 kts 89°
2026-04-28 14:31 13.20746 77.65013 3709 ft 144 kts 90°
2026-04-28 14:31 13.20737 77.66054 3529 ft 148 kts 91°
2026-04-28 14:31 13.20741 77.67115 3341 ft 150 kts 90°
2026-04-28 14:32 13.20726 77.68186 3123 ft 150 kts 94°
2026-04-28 14:32 13.20707 77.69238 3013 ft 138 kts 92°
2026-04-28 14:32 13.20705 77.70058 3011 ft 90 kts 90°
2026-04-28 14:32 13.20682 77.70477 3011 ft 30 kts 113°
2026-04-28 14:33 13.20619 77.70587 3012 ft 18 kts 119°
2026-04-28 14:33 13.20568 77.70678 3011 ft 12 kts 120°
2026-04-28 14:33 13.20532 77.70756 3011 ft 12 kts 102°
2026-04-28 14:33 13.20528 77.70836 3011 ft 10 kts 92°
2026-04-28 14:34 13.20527 77.70918 3011 ft 4 kts 91°
2026-04-28 14:34 13.20527 77.70941 3011 ft 3 kts 90°
2026-04-28 14:34 13.20527 77.70962 3011 ft 3 kts 90°
2026-04-28 14:35 13.20527 77.70979 3011 ft 2 kts 90°
2026-04-28 14:35 13.20527 77.70997 3011 ft 3 kts 89°
2026-04-28 14:35 13.20527 77.71019 3011 ft 3 kts 90°
2026-04-28 14:35 13.20527 77.71048 3011 ft 5 kts 90°
2026-04-28 14:36 13.20527 77.71085 3011 ft 6 kts 90°
2026-04-28 14:36 13.20527 77.71123 3011 ft 5 kts 90°
2026-04-28 14:36 13.20527 77.71157 3011 ft 7 kts 90°
2026-04-28 14:36 13.20526 77.71222 3011 ft 10 kts 91°
2026-04-28 14:37 13.20489 77.71279 3011 ft 11 kts 168°
2026-04-28 14:37 13.20406 77.71277 3011 ft 13 kts 182°
2026-04-28 14:37 13.20317 77.71276 3014 ft 10 kts 180°
2026-04-28 14:37 13.20255 77.71281 3011 ft 4 kts 156°
2026-04-28 14:38 13.20226 77.71295 3011 ft 5 kts 164°
2026-04-28 14:38 13.20188 77.71301 3011 ft 5 kts 172°
2026-04-28 14:38 13.20171 77.71303 3011 ft 0 kts 173°
2026-04-28 14:38 13.20170 77.71303 3011 ft 0 kts 173°